| time (UTC) | temp C | wind direction | speed KPH | gust KPH | rain 1hr cm | rain 24hr cm | rain mn cm | humidity % | barometer mb |
| 20260505124821 | -17 | 0.0 | 0.0 | 0.00 | 0.05 | 0.05 | 1007.2 | ||
| 20260505124319 | -17 | 0.0 | 0.0 | 0.00 | 0.05 | 0.05 | 1007.1 | ||
| 20260505123835 | -17 | 0.0 | 0.0 | 0.00 | 0.05 | 0.05 | 1007.0 | ||
| 20260505123350 | -17 | 0.0 | 0.0 | 0.00 | 0.05 | 0.05 | 1006.8 | ||
| 20260505122826 | -17 | 0.0 | 0.0 | 0.00 | 0.05 | 0.05 | 1006.6 | ||
| 20260505122321 | -17 | 0.0 | 0.0 | 0.00 | 0.05 | 0.05 | 1006.4 | ||
| 20260505121818 | -17 | 0.0 | 0.0 | 0.00 | 0.05 | 0.05 | 1006.6 | ||
| 20260505121313 | -17 | 0.0 | 0.0 | 0.00 | 0.05 | 0.05 | 1006.6 | ||
| 20260505120828 | -17 | 0.0 | 0.0 | 0.00 | 0.05 | 0.05 | 1006.6 | ||
| 20260505120329 | -17 | 0.0 | 0.0 | 0.00 | 0.05 | 0.05 | 1006.6 | ||
| 20260505115844 | -17 | 0.0 | 0.0 | 0.00 | 0.05 | 0.05 | 1006.4 | ||
| 20260505115319 | -17 | 0.0 | 0.0 | 0.00 | 0.05 | 0.05 | 1006.5 | ||
| 20260505114815 | -17 | 0.0 | 0.0 | 0.00 | 0.05 | 0.05 | 1006.7 | ||
| 20260505114331 | -17 | 0.0 | 0.0 | 0.00 | 0.05 | 0.05 | 1006.4 | ||
| 20260505113827 | -17 | 0.0 | 0.0 | 0.00 | 0.05 | 0.05 | 1006.0 | ||
| 20260505113323 | -17 | 0.0 | 0.0 | 0.00 | 0.05 | 0.05 | 1006.0 | ||
| 20260505112820 | -17 | 0.0 | 0.0 | 0.00 | 0.05 | 0.05 | 1005.8 | ||
| 20260505112320 | -17 | 0.0 | 0.0 | 0.00 | 0.05 | 0.05 | 1005.6 | ||
| 20260505111815 | -17 | 0.0 | 0.0 | 0.00 | 0.05 | 0.05 | 1006.1 | ||
| 20260505111312 | -17 | 0.0 | 0.0 | 0.00 | 0.05 | 0.05 | 1006.4 | ||
| 20260505110828 | -17 | 0.0 | 0.0 | 0.00 | 0.05 | 0.05 | 1006.5 | ||
| 20260505110324 | -17 | 0.0 | 0.0 | 0.00 | 0.05 | 0.05 | 1005.9 | ||
| 20260505101831 | -17 | 0.0 | 0.0 | 0.00 | 0.05 | 0.05 | 1006.1 | ||
| 20260505101346 | -17 | 0.0 | 0.0 | 0.00 | 0.05 | 0.05 | 1005.8 | ||
| 20260505100821 | -17 | 0.0 | 0.0 | 0.00 | 0.05 | 0.05 | 1006.2 | ||
| 20260505100321 | -17 | 0.0 | 0.0 | 0.00 | 0.05 | 0.05 | 1006.3 | ||
| 20260505095816 | -17 | 0.0 | 0.0 | 0.00 | 0.05 | 0.05 | 1006.0 | ||
| 20260505095311 | -17 | 0.0 | 0.0 | 0.00 | 0.05 | 0.05 | 1005.5 | ||
| 20260505094827 | -17 | 0.0 | 0.0 | 0.03 | 0.05 | 0.05 | 1005.2 | ||
| 20260505094323 | -17 | 0.0 | 0.0 | 0.03 | 0.05 | 0.05 | 1004.9 | ||
| 20260505093820 | -17 | 0.0 | 0.0 | 0.03 | 0.05 | 0.05 | 1005.1 | ||
| 20260505093316 | -17 | 0.0 | 0.0 | 0.05 | 0.05 | 0.05 | 1005.1 | ||
| 20260505092816 | -17 | 0.0 | 0.0 | 0.05 | 0.05 | 0.05 | 1005.2 | ||
| 20260505092313 | -17 | 0.0 | 0.0 | 0.05 | 0.05 | 0.05 | 1005.0 | ||
| 20260505091849 | -17 | 0.0 | 0.0 | 0.05 | 0.05 | 0.05 | 1004.9 | ||
| 20260505090848 | 16 | 228 | 0.0 | 6.4 | 0.05 | 0.05 | 0.05 | 86 | 1004.2 |
| 20260505090344 | 16 | 211 | 1.6 | 9.7 | 0.05 | 0.05 | 0.05 | 86 | 1003.3 |
| 20260505085817 | 16 | 239 | 0.0 | 20.9 | 0.05 | 0.05 | 0.05 | 86 | 1003.6 |
| 20260505085314 | 16 | 193 | 4.8 | 29.0 | 0.05 | 0.05 | 0.05 | 85 | 1003.4 |
| 20260505084810 | 17 | 168 | 4.8 | 29.0 | 0.03 | 0.03 | 0.03 | 84 | 1003.2 |
| 20260505084326 | 17 | 290 | 3.2 | 14.5 | 0.03 | 0.03 | 0.03 | 84 | 1003.8 |
| 20260505083822 | 17 | 202 | 0.0 | 16.1 | 0.03 | 0.03 | 0.03 | 83 | 1004.9 |
| 20260505083321 | 17 | 266 | 3.2 | 16.1 | 0.00 | 0.00 | 0.00 | 82 | 1005.5 |
| 20260505082838 | 17 | 248 | 3.2 | 16.1 | 0.00 | 0.00 | 0.00 | 82 | 1005.8 |
| 20260505082312 | 17 | 270 | 1.6 | 25.7 | 0.00 | 0.00 | 0.00 | 80 | 1005.8 |
| 20260505081829 | 18 | 257 | 0.0 | 25.7 | 0.00 | 0.00 | 0.00 | 79 | 1005.7 |
| 20260505081324 | 18 | 184 | 4.8 | 33.8 | 0.00 | 0.00 | 0.00 | 78 | 1005.9 |
| 20260505080820 | 18 | 247 | 3.2 | 33.8 | 0.00 | 0.00 | 0.00 | 77 | 1005.7 |
| 20260505080316 | 18 | 215 | 0.0 | 17.7 | 0.00 | 0.00 | 0.00 | 76 | 1005.6 |
| 20260505075810 | 18 | 232 | 3.2 | 17.7 | 0.00 | 0.00 | 0.00 | 75 | 1005.4 |
| 20260505075346 | 18 | 241 | 0.0 | 14.5 | 0.00 | 0.00 | 0.00 | 75 | 1005.4 |
| 20260505074841 | 18 | 246 | 0.0 | 6.4 | 0.00 | 0.00 | 0.00 | 74 | 1005.4 |
| 20260505074341 | 18 | 234 | 0.0 | 6.4 | 0.00 | 0.00 | 0.00 | 74 | 1005.6 |
| 20260505073816 | 18 | 238 | 0.0 | 1.6 | 0.00 | 0.00 | 0.00 | 74 | 1005.5 |
| 20260505073312 | 18 | 243 | 0.0 | 1.6 | 0.00 | 0.00 | 0.00 | 74 | 1005.3 |
| 20260505072828 | 18 | 246 | 0.0 | 0.0 | 0.00 | 0.00 | 0.00 | 74 | 1005.2 |
| 20260505072324 | 18 | 167 | 0.0 | 0.0 | 0.00 | 0.00 | 0.00 | 74 | 1005.2 |
| 20260505071819 | 18 | 173 | 0.0 | 0.0 | 0.00 | 0.00 | 0.00 | 74 | 1005.3 |
| 20260505071315 | 18 | 162 | 0.0 | 0.0 | 0.00 | 0.00 | 0.00 | 74 | 1005.3 |
| 20260505070811 | 18 | 219 | 0.0 | 0.0 | 0.00 | 0.00 | 0.00 | 74 | 1005.3 |
| 20260505070312 | 18 | 236 | 0.0 | 0.0 | 0.00 | 0.00 | 0.00 | 74 | 1005.2 |
| 20260505065827 | 18 | 181 | 0.0 | 0.0 | 0.00 | 0.00 | 0.00 | 74 | 1005.1 |
| 20260505065344 | 18 | 156 | 0.0 | 0.0 | 0.00 | 0.00 | 0.00 | 74 | 1005.1 |
| 20260505064839 | 18 | 158 | 0.0 | 0.0 | 0.00 | 0.00 | 0.00 | 74 | 1005.2 |
| 20260505064314 | 18 | 182 | 0.0 | 0.0 | 0.00 | 0.00 | 0.00 | 74 | 1005.4 |
| 20260505063829 | 18 | 225 | 0.0 | 0.0 | 0.00 | 0.00 | 0.00 | 74 | 1005.5 |
| 20260505063345 | 18 | 211 | 0.0 | 0.0 | 0.00 | 0.00 | 0.00 | 74 | 1005.6 |
| 20260505062820 | 18 | 210 | 0.0 | 0.0 | 0.00 | 0.00 | 0.00 | 74 | 1005.6 |
| 20260505062316 | 18 | 211 | 0.0 | 0.0 | 0.00 | 0.00 | 0.00 | 74 | 1005.7 |
| 20260505061811 | 18 | 219 | 0.0 | 0.0 | 0.00 | 0.00 | 0.00 | 74 | 1005.8 |
| 20260505061312 | 18 | 220 | 0.0 | 0.0 | 0.00 | 0.00 | 0.00 | 74 | 1005.7 |
| 20260505060828 | 18 | 204 | 0.0 | 3.2 | 0.00 | 0.00 | 0.00 | 74 | 1005.8 |
| 20260505060323 | 18 | 205 | 0.0 | 3.2 | 0.00 | 0.00 | 0.00 | 74 | 1005.7 |
| 20260505055819 | 18 | 194 | 0.0 | 1.6 | 0.00 | 0.00 | 0.00 | 74 | 1005.7 |
| 20260505055314 | 18 | 214 | 0.0 | 1.6 | 0.00 | 0.00 | 0.00 | 73 | 1005.8 |
| 20260505054850 | 18 | 183 | 0.0 | 0.0 | 0.00 | 0.00 | 0.00 | 73 | 1005.8 |
| 20260505054345 | 18 | 169 | 0.0 | 0.0 | 0.00 | 0.00 | 0.00 | 73 | 1005.7 |
| 20260505053820 | 18 | 186 | 0.0 | 1.6 | 0.00 | 0.00 | 0.00 | 73 | 1005.9 |
| 20260505053316 | 18 | 214 | 0.0 | 1.6 | 0.00 | 0.00 | 0.00 | 73 | 1005.8 |
| 20260505052815 | 18 | 223 | 0.0 | 1.6 | 0.00 | 0.00 | 0.00 | 73 | 1005.7 |
| 20260505052311 | 18 | 215 | 0.0 | 1.6 | 0.00 | 0.00 | 0.00 | 73 | 1005.8 |
| 20260505051827 | 18 | 111 | 0.0 | 1.6 | 0.00 | 0.00 | 0.00 | 73 | 1005.8 |
| 20260505051322 | 18 | 215 | 0.0 | 1.6 | 0.00 | 0.00 | 0.00 | 73 | 1005.7 |
| 20260505050818 | 18 | 209 | 0.0 | 0.0 | 0.00 | 0.00 | 0.00 | 72 | 1005.6 |
| 20260505050315 | 18 | 190 | 0.0 | 0.0 | 0.00 | 0.00 | 0.00 | 72 | 1005.6 |
| 20260505041322 | 19 | 218 | 0.0 | 0.0 | 0.00 | 0.00 | 0.00 | 69 | 1006.2 |
| 20260505040817 | 19 | 199 | 0.0 | 3.2 | 0.00 | 0.00 | 0.00 | 69 | 1006.4 |
| 20260505040313 | 19 | 211 | 0.0 | 3.2 | 0.00 | 0.00 | 0.00 | 69 | 1006.5 |
| 20260505035849 | 19 | 213 | 0.0 | 3.2 | 0.00 | 0.00 | 0.00 | 69 | 1006.6 |
| 20260505035325 | 19 | 213 | 0.0 | 11.3 | 0.00 | 0.00 | 0.00 | 68 | 1006.6 |
| 20260505034821 | 20 | 163 | 0.0 | 11.3 | 0.00 | 0.00 | 0.00 | 68 | 1006.7 |
| 20260505034317 | 20 | 163 | 0.0 | 0.0 | 0.00 | 0.00 | 0.00 | 68 | 1006.6 |
| 20260505033814 | 20 | 203 | 0.0 | 3.2 | 0.00 | 0.00 | 0.00 | 67 | 1006.6 |
| 20260505033315 | 20 | 213 | 0.0 | 3.2 | 0.00 | 0.00 | 0.00 | 67 | 1006.8 |
| 20260505032811 | 20 | 203 | 0.0 | 0.0 | 0.00 | 0.00 | 0.00 | 67 | 1006.9 |
| 20260505032329 | 20 | 216 | 0.0 | 0.0 | 0.00 | 0.00 | 0.00 | 66 | 1006.8 |
| 20260505031825 | 20 | 209 | 0.0 | 0.0 | 0.00 | 0.00 | 0.00 | 66 | 1006.9 |
| 20260505031320 | 20 | 211 | 0.0 | 16.1 | 0.00 | 0.00 | 0.00 | 66 | 1006.9 |
| 20260505030816 | 20 | 223 | 1.6 | 16.1 | 0.00 | 0.00 | 0.00 | 65 | 1006.9 |
| 20260505025845 | 20 | 192 | 0.0 | 6.4 | 0.00 | 0.00 | 0.00 | 65 | 1006.8 |
| 20260505025319 | 20 | 184 | 0.0 | 1.6 | 0.00 | 0.00 | 0.00 | 65 | 1006.7 |
| 20260505024816 | 20 | 218 | 0.0 | 1.6 | 0.00 | 0.00 | 0.00 | 65 | 1006.7 |
| 20260505024312 | 20 | 215 | 0.0 | 1.6 | 0.00 | 0.00 | 0.00 | 65 | 1006.6 |
| 20260505023829 | 20 | 248 | 0.0 | 1.6 | 0.00 | 0.00 | 0.00 | 65 | 1006.6 |
| 20260505023309 | 21 | 206 | 0.0 | 1.6 | 0.00 | 0.00 | 0.00 | 65 | 1006.5 |
| 20260505022824 | 21 | 209 | 0.0 | 0.0 | 0.00 | 0.00 | 0.00 | 65 | 1006.4 |
| 20260505022321 | 21 | 222 | 0.0 | 6.4 | 0.00 | 0.00 | 0.00 | 64 | 1006.3 |
| 20260505021817 | 21 | 221 | 0.0 | 0.0 | 0.00 | 0.00 | 0.00 | 64 | 1006.2 |
| 20260505021314 | 21 | 209 | 0.0 | 0.0 | 0.00 | 0.00 | 0.00 | 64 | 1006.2 |
| 20260505020829 | 21 | 212 | 0.0 | 1.6 | 0.00 | 0.00 | 0.00 | 63 | 1006.1 |
| 20260505020325 | 21 | 228 | 0.0 | 1.6 | 0.00 | 0.00 | 0.00 | 63 | 1006.1 |
| 20260505015840 | 21 | 215 | 0.0 | 0.0 | 0.00 | 0.00 | 0.00 | 63 | 1005.9 |
| 20260505015314 | 21 | 223 | 0.0 | 0.0 | 0.00 | 0.00 | 0.00 | 62 | 1005.7 |
| 20260505014810 | 21 | 208 | 0.0 | 0.0 | 0.00 | 0.00 | 0.00 | 62 | 1005.8 |
| 20260505014310 | 21 | 216 | 0.0 | 0.0 | 0.00 | 0.00 | 0.00 | 62 | 1005.7 |
| 20260505013827 | 21 | 223 | 0.0 | 0.0 | 0.00 | 0.00 | 0.00 | 61 | 1005.6 |
| 20260505013323 | 21 | 213 | 0.0 | 1.6 | 0.00 | 0.00 | 0.00 | 60 | 1005.6 |
| 20260505012819 | 21 | 219 | 0.0 | 1.6 | 0.00 | 0.00 | 0.00 | 60 | 1005.5 |
| 20260505012315 | 22 | 215 | 0.0 | 4.8 | 0.00 | 0.00 | 0.00 | 59 | 1005.5 |
| 20260505011811 | 22 | 212 | 0.0 | 4.8 | 0.00 | 0.00 | 0.00 | 59 | 1005.5 |
| 20260505011348 | 22 | 175 | 0.0 | 0.0 | 0.00 | 0.00 | 0.00 | 58 | 1005.4 |
| 20260505010824 | 22 | 215 | 0.0 | 3.2 | 0.00 | 0.00 | 0.00 | 57 | 1005.4 |
| 20260505010325 | 22 | 218 | 0.0 | 4.8 | 0.00 | 0.00 | 0.00 | 57 | 1005.2 |
| 20260505005821 | 22 | 214 | 0.0 | 4.8 | 0.00 | 0.00 | 0.00 | 56 | 1005.2 |
| 20260505005317 | 22 | 234 | 0.0 | 0.0 | 0.00 | 0.00 | 0.00 | 55 | 1005.2 |
| 20260505004813 | 23 | 224 | 0.0 | 3.2 | 0.00 | 0.00 | 0.00 | 55 | 1005.0 |
| 20260505004329 | 23 | 226 | 0.0 | 3.2 | 0.00 | 0.00 | 0.00 | 55 | 1005.0 |
| 20260505003824 | 23 | 227 | 0.0 | 8.0 | 0.00 | 0.00 | 0.00 | 54 | 1005.0 |
| 20260505003320 | 23 | 220 | 0.0 | 8.0 | 0.00 | 0.00 | 0.00 | 54 | 1005.0 |
| 20260505002821 | 23 | 221 | 0.0 | 6.4 | 0.00 | 0.00 | 0.00 | 54 | 1004.9 |
| 20260505002318 | 23 | 169 | 0.0 | 6.4 | 0.00 | 0.00 | 0.00 | 53 | 1004.9 |
| 20260505001834 | 23 | 216 | 0.0 | 1.6 | 0.00 | 0.00 | 0.00 | 53 | 1004.9 |
| 20260505001309 | 23 | 224 | 0.0 | 1.6 | 0.00 | 0.00 | 0.00 | 53 | 1004.9 |
| 20260505000825 | 23 | 221 | 0.0 | 6.4 | 0.00 | 0.00 | 0.00 | 53 | 1005.0 |
| 20260505000343 | 24 | 233 | 0.0 | 6.4 | 0.00 | 0.00 | 0.00 | 51 | 1005.0 |
| 20260504235836 | 24 | 217 | 0.0 | 11.3 | 0.00 | 0.00 | 0.00 | 51 | 1005.0 |
| 20260504235332 | 25 | 252 | 1.6 | 11.3 | 0.00 | 0.00 | 0.00 | 50 | 1005.0 |
| 20260504234847 | 25 | 207 | 0.0 | 8.0 | 0.00 | 0.00 | 0.00 | 50 | 1005.0 |
| 20260504234342 | 25 | 235 | 0.0 | 9.7 | 0.00 | 0.00 | 0.00 | 49 | 1005.0 |
| 20260504233817 | 25 | 232 | 0.0 | 6.4 | 0.00 | 0.00 | 0.00 | 50 | 1004.9 |
| 20260504233317 | 25 | 223 | 0.0 | 17.7 | 0.00 | 0.00 | 0.00 | 49 | 1005.0 |
| 20260504232833 | 25 | 229 | 1.6 | 17.7 | 0.00 | 0.00 | 0.00 | 48 | 1004.9 |
| 20260504232328 | 26 | 168 | 0.0 | 16.1 | 0.00 | 0.00 | 0.00 | 49 | 1005.0 |
| 20260504231825 | 26 | 248 | 1.6 | 16.1 | 0.00 | 0.00 | 0.00 | 48 | 1005.0 |
| 20260504231342 | 26 | 212 | 1.6 | 12.9 | 0.00 | 0.00 | 0.00 | 48 | 1005.0 |
| 20260504230817 | 26 | 208 | 0.0 | 25.7 | 0.00 | 0.00 | 0.00 | 48 | 1005.0 |
| 20260504230313 | 26 | 269 | 1.6 | 27.4 | 0.00 | 0.00 | 0.00 | 48 | 1004.9 |
| 20260504225809 | 26 | 203 | 3.2 | 27.4 | 0.00 | 0.00 | 0.00 | 47 | 1005.0 |
| 20260504225309 | 26 | 189 | 4.8 | 24.1 | 0.00 | 0.00 | 0.00 | 47 | 1005.0 |
| 20260504224827 | 26 | 204 | 0.0 | 14.5 | 0.00 | 0.00 | 0.00 | 48 | 1005.0 |
| 20260504224323 | 26 | 209 | 0.0 | 16.1 | 0.00 | 0.00 | 0.00 | 48 | 1004.9 |
| 20260504223818 | 26 | 261 | 0.0 | 17.7 | 0.00 | 0.00 | 0.00 | 48 | 1004.9 |
| 20260504223313 | 26 | 231 | 1.6 | 22.5 | 0.00 | 0.00 | 0.00 | 47 | 1005.0 |
| 20260504222829 | 26 | 209 | 1.6 | 16.1 | 0.00 | 0.00 | 0.00 | 47 | 1005.0 |
| 20260504222324 | 26 | 240 | 0.0 | 16.1 | 0.00 | 0.00 | 0.00 | 48 | 1005.0 |
| 20260504221820 | 26 | 270 | 1.6 | 16.1 | 0.00 | 0.00 | 0.00 | 48 | 1005.0 |
| 20260504221320 | 26 | 212 | 1.6 | 17.7 | 0.00 | 0.00 | 0.00 | 48 | 1005.1 |
| 20260504220816 | 26 | 211 | 0.0 | 17.7 | 0.00 | 0.00 | 0.00 | 48 | 1005.0 |
| 20260504220333 | 26 | 227 | 1.6 | 16.1 | 0.00 | 0.00 | 0.00 | 47 | 1005.1 |
| 20260504215828 | 26 | 224 | 0.0 | 12.9 | 0.00 | 0.00 | 0.00 | 49 | 1005.0 |
| 20260504215344 | 26 | 219 | 0.0 | 25.7 | 0.00 | 0.00 | 0.00 | 49 | 1005.0 |
| 20260504214820 | 26 | 213 | 4.8 | 25.7 | 0.00 | 0.00 | 0.00 | 48 | 1005.1 |
| 20260504214315 | 26 | 148 | 0.0 | 20.9 | 0.00 | 0.00 | 0.00 | 49 | 1005.1 |
| 20260504213830 | 26 | 140 | 0.0 | 3.2 | 0.00 | 0.00 | 0.00 | 49 | 1005.1 |
| 20260504213325 | 26 | 248 | 0.0 | 24.1 | 0.00 | 0.00 | 0.00 | 49 | 1005.2 |
| 20260504212826 | 26 | 145 | 3.2 | 24.1 | 0.00 | 0.00 | 0.00 | 48 | 1005.3 |
| 20260504212323 | 26 | 260 | 3.2 | 20.9 | 0.00 | 0.00 | 0.00 | 48 | 1005.4 |
| 20260504211819 | 26 | 248 | 1.6 | 16.1 | 0.00 | 0.00 | 0.00 | 48 | 1005.5 |
| 20260504211316 | 26 | 198 | 3.2 | 22.5 | 0.00 | 0.00 | 0.00 | 48 | 1005.5 |
| 20260504210811 | 26 | 258 | 4.8 | 22.5 | 0.00 | 0.00 | 0.00 | 48 | 1005.5 |
| 20260504210328 | 26 | 249 | 3.2 | 25.7 | 0.00 | 0.00 | 0.00 | 49 | 1005.6 |
| 20260504205823 | 26 | 213 | 3.2 | 25.7 | 0.00 | 0.00 | 0.00 | 47 | 1005.6 |
| 20260504205320 | 26 | 246 | 3.2 | 25.7 | 0.00 | 0.00 | 0.00 | 47 | 1005.7 |
| 20260504204820 | 26 | 217 | 3.2 | 24.1 | 0.00 | 0.00 | 0.00 | 49 | 1005.7 |
| 20260504204316 | 27 | 277 | 4.8 | 22.5 | 0.00 | 0.00 | 0.00 | 48 | 1005.8 |
| 20260504203812 | 26 | 218 | 3.2 | 24.1 | 0.00 | 0.00 | 0.00 | 48 | 1005.8 |
| 20260504203329 | 26 | 182 | 4.8 | 24.1 | 0.00 | 0.00 | 0.00 | 48 | 1005.9 |
| 20260504202824 | 26 | 163 | 0.0 | 20.9 | 0.00 | 0.00 | 0.00 | 49 | 1005.9 |
| 20260504202320 | 26 | 239 | 1.6 | 19.3 | 0.00 | 0.00 | 0.00 | 50 | 1006.0 |
| 20260504201836 | 26 | 202 | 1.6 | 29.0 | 0.00 | 0.00 | 0.00 | 49 | 1006.1 |
| 20260504201313 | 26 | 227 | 1.6 | 14.5 | 0.00 | 0.00 | 0.00 | 49 | 1006.1 |
| 20260504200810 | 26 | 235 | 1.6 | 16.1 | 0.00 | 0.00 | 0.00 | 48 | 1006.2 |
| 20260504200325 | 26 | 229 | 1.6 | 12.9 | 0.00 | 0.00 | 0.00 | 49 | 1006.2 |
| 20260504195821 | 26 | 202 | 0.0 | 25.7 | 0.00 | 0.00 | 0.00 | 50 | 1006.3 |
| 20260504195317 | 26 | 263 | 1.6 | 25.7 | 0.00 | 0.00 | 0.00 | 49 | 1006.4 |
| 20260504194813 | 26 | 243 | 3.2 | 29.0 | 0.00 | 0.00 | 0.00 | 47 | 1006.5 |
| 20260504194309 | 26 | 215 | 3.2 | 29.0 | 0.00 | 0.00 | 0.00 | 48 | 1006.6 |
| 20260504193824 | 26 | 230 | 6.4 | 27.4 | 0.00 | 0.00 | 0.00 | 47 | 1006.5 |
| 20260504193319 | 26 | 225 | 4.8 | 27.4 | 0.00 | 0.00 | 0.00 | 48 | 1006.6 |
| 20260504192820 | 26 | 226 | 0.0 | 19.3 | 0.00 | 0.00 | 0.00 | 51 | 1006.5 |
| 20260504192316 | 26 | 167 | 3.2 | 19.3 | 0.00 | 0.00 | 0.00 | 50 | 1006.6 |
| 20260504191812 | 26 | 212 | 1.6 | 12.9 | 0.00 | 0.00 | 0.00 | 48 | 1006.6 |
| 20260504191328 | 26 | 218 | 0.0 | 14.5 | 0.00 | 0.00 | 0.00 | 49 | 1006.6 |
| 20260504190824 | 26 | 226 | 0.0 | 17.7 | 0.00 | 0.00 | 0.00 | 49 | 1006.6 |
| 20260504190320 | 26 | 194 | 0.0 | 25.7 | 0.00 | 0.00 | 0.00 | 51 | 1006.7 |
| 20260504185815 | 26 | 257 | 1.6 | 25.7 | 0.00 | 0.00 | 0.00 | 49 | 1006.8 |
| 20260504185316 | 26 | 169 | 1.6 | 16.1 | 0.00 | 0.00 | 0.00 | 49 | 1006.8 |
| 20260504184811 | 26 | 215 | 1.6 | 24.1 | 0.00 | 0.00 | 0.00 | 50 | 1006.8 |
| 20260504184327 | 26 | 146 | 6.4 | 24.1 | 0.00 | 0.00 | 0.00 | 49 | 1006.8 |
| 20260504183821 | 26 | 216 | 0.0 | 29.0 | 0.00 | 0.00 | 0.00 | 51 | 1006.7 |
| 20260504183317 | 26 | 198 | 4.8 | 29.0 | 0.00 | 0.00 | 0.00 | 50 | 1006.7 |
| 20260504182812 | 26 | 223 | 3.2 | 19.3 | 0.00 | 0.00 | 0.00 | 51 | 1006.7 |
| 20260504182328 | 26 | 212 | 1.6 | 25.7 | 0.00 | 0.00 | 0.00 | 51 | 1006.7 |
| 20260504181824 | 26 | 248 | 4.8 | 25.7 | 0.00 | 0.00 | 0.00 | 50 | 1006.6 |
| 20260504181320 | 26 | 230 | 1.6 | 16.1 | 0.00 | 0.00 | 0.00 | 50 | 1006.5 |
| 20260504180841 | 26 | 191 | 0.0 | 12.9 | 0.00 | 0.00 | 0.00 | 51 | 1006.6 |
| 20260504180316 | 26 | 219 | 0.0 | 12.9 | 0.00 | 0.00 | 0.00 | 53 | 1006.6 |
| 20260504175832 | 26 | 190 | 0.0 | 20.9 | 0.00 | 0.00 | 0.00 | 50 | 1006.6 |
| 20260504175326 | 25 | 225 | 1.6 | 29.0 | 0.00 | 0.00 | 0.00 | 52 | 1006.7 |
| 20260504174842 | 25 | 208 | 6.4 | 29.0 | 0.00 | 0.00 | 0.00 | 49 | 1006.8 |
| 20260504174319 | 25 | 205 | 3.2 | 25.7 | 0.00 | 0.00 | 0.00 | 50 | 1006.8 |
| 20260504173815 | 25 | 259 | 4.8 | 25.7 | 0.00 | 0.00 | 0.00 | 51 | 1006.9 |
| 20260504173312 | 25 | 212 | 6.4 | 20.9 | 0.00 | 0.00 | 0.00 | 50 | 1007.0 |
| 20260504172850 | 25 | 225 | 3.2 | 17.7 | 0.00 | 0.00 | 0.00 | 52 | 1007.0 |
| 20260504172309 | 25 | 198 | 1.6 | 32.2 | 0.00 | 0.00 | 0.00 | 51 | 1006.9 |
| 20260504171825 | 25 | 240 | 11.3 | 32.2 | 0.00 | 0.00 | 0.00 | 50 | 1007.0 |
| 20260504171320 | 25 | 191 | 4.8 | 38.6 | 0.00 | 0.00 | 0.00 | 51 | 1007.1 |
| 20260504170816 | 25 | 198 | 11.3 | 38.6 | 0.00 | 0.00 | 0.00 | 50 | 1007.0 |
| 20260504170313 | 25 | 223 | 8.0 | 30.6 | 0.00 | 0.00 | 0.00 | 51 | 1007.0 |
| 20260504160311 | 23 | 217 | 3.2 | 25.7 | 0.00 | 0.00 | 0.00 | 51 | 1007.7 |
| 20260504150810 | 22 | 237 | 3.2 | 24.1 | 0.00 | 0.00 | 0.00 | 52 | 1008.1 |
| 20260504150327 | 22 | 205 | 3.2 | 24.1 | 0.00 | 0.00 | 0.00 | 53 | 1008.2 |
| 20260504141328 | 20 | 242 | 11.3 | 20.9 | 0.00 | 0.00 | 0.00 | 56 | 1008.6 |
| 20260504140823 | 20 | 254 | 8.0 | 29.0 | 0.00 | 0.00 | 0.00 | 57 | 1008.7 |
| 20260504140340 | 20 | 267 | 1.6 | 29.0 | 0.00 | 0.00 | 0.00 | 58 | 1008.8 |
| 20260504130821 | 18 | 168 | 0.0 | 12.9 | 0.00 | 0.00 | 0.00 | 62 | 1009.0 |
| 20260504130318 | 17 | 215 | 0.0 | 12.9 | 0.00 | 0.00 | 0.00 | 62 | 1009.0 |